Погода в Балахте

Россия / Красноярский край     55°23′10″N   91°37′37″E
темп.,
°C
ветер,
м/с
пор.,
м/с
влажн.,
%
обл.,
%
осадки,
мм/ч
давл.,
гПа
погр.,
м
9 марта, вт
вт901:00−1ююз61781100 0.0 1009735
04:00−2юз61583100 0.0 1009545
07:00−4з81384100 0.3 1015987
10:00−8з6128690 0.0 10221041
13:00−6зюз7117495 0.0 10241407
16:00−5зюз7117271 0.0 10251372
19:00−9юз4118152 0.1 1026234
22:00−13ююз22825 0.0 102727
10 марта, ср
ср1001:00−13ююв118052 0.0 102421
04:00−14ююв118398 0.0 102320
07:00−16ююв118784 0.0 102220
10:00−9ю12840 0.0 1021141
13:00−5юз248412 0.0 1019301
16:00−2юз278627 0.0 1018497
19:00−5ю129260 0.0 101721
22:00−6юв2291100 0.0 101621
11 марта, чт
чт1101:00−8вюв129097 0.0 101321
04:00−7вюв2291100 0.0 100924
07:00−6вюв2293100 0.0 100770
10:00−1ю61782100 0.0 1008645
13:00+1ююз71583100 0.0 1009850
16:00+1юз6139094 0.0 1011943
19:00−1зюз5138297 0.1 1015479
22:00−4зюз41281100 0.0 1018351
12 марта, пт
пт1201:00−8юз2381100 0.0 101946
04:00−9ю238254 0.0 101925
07:00−8юв338177 0.0 101556
10:00−3ю71776100 0.0 1012854
13:00−1юз91677100 0.0 10121840
16:00−4зюз9187167 0.1 10142156
19:00−10з398068 0.2 1016258
22:00−14з1286100 0.0 101739
13 марта, сб
сб1301:00−15з1290100 0.0 101822
04:00−17с229599 0.0 101852
07:00−20с119568 0.0 101720
10:00−14зсз23850 0.0 1017223
13:00−12з498216 0.0 1017937
16:00−14зсз6108194 0.1 10201016
19:00−16з5119297 0.1 1024914
22:00−17з51292100 0.1 1028875